Time,TemperatureF,DewpointF,PressureIn,WindDirection,WindDirectionDegrees,WindSpeedMPH,WindSpeedGustMPH,Humidity,HourlyPrecipIn,Conditions,Clouds,dailyrainin,SoftwareType,DateUTC
2013-10-13 00:02:00,49.1,32.0,28.94,WSW,244,0.0,0.0,43,0.00,,,-99.99,wx200d/1.3,2013-10-13 04:02:00,
2013-10-13 00:06:00,49.1,32.0,28.94,East,99,0.0,0.0,43,0.00,,,-99.99,wx200d/1.3,2013-10-13 04:06:00,
2013-10-13 00:10:00,49.1,32.0,28.94,West,267,0.0,0.0,43,0.00,,,-99.99,wx200d/1.3,2013-10-13 04:10:00,
2013-10-13 00:16:00,49.1,32.0,28.94,North,357,0.0,0.0,43,0.00,,,-99.99,wx200d/1.3,2013-10-13 04:16:00,
2013-10-13 00:18:00,49.1,32.0,28.94,South,180,0.0,0.0,43,0.00,,,-99.99,wx200d/1.3,2013-10-13 04:18:00,
2013-10-13 00:24:00,48.9,32.0,28.94,NNW,331,0.0,0.0,43,0.00,,,-99.99,wx200d/1.3,2013-10-13 04:24:00,
2013-10-13 00:30:00,48.9,32.0,28.94,WNW,285,0.0,0.0,43,0.00,,,-99.99,wx200d/1.3,2013-10-13 04:30:00,
2013-10-13 00:34:00,48.7,32.0,28.94,NW,307,0.0,0.0,43,0.00,,,-99.99,wx200d/1.3,2013-10-13 04:34:00,
2013-10-13 00:40:00,48.7,32.0,28.94,WNW,302,0.0,0.0,43,0.00,,,-99.99,wx200d/1.3,2013-10-13 04:40:00,
2013-10-13 00:46:00,48.7,32.0,28.94,NNW,343,0.0,0.0,43,0.00,,,-99.99,wx200d/1.3,2013-10-13 04:46:00,
2013-10-13 00:52:00,48.7,32.0,28.94,NW,307,0.0,0.0,43,0.00,,,-99.99,wx200d/1.3,2013-10-13 04:52:00,
2013-10-13 00:58:00,48.7,32.0,28.94,WNW,287,0.0,0.0,43,0.00,,,-99.99,wx200d/1.3,2013-10-13 04:58:00,
2013-10-13 01:04:00,48.6,32.0,28.94,North,0,0.0,0.0,42,0.00,,,-99.99,wx200d/1.3,2013-10-13 05:04:00,
2013-10-13 01:10:00,48.6,32.0,28.94,North,0,0.0,0.0,42,0.00,,,-99.99,wx200d/1.3,2013-10-13 05:10:00,
2013-10-13 01:16:00,48.6,32.0,28.94,NNE,12,0.0,0.0,42,0.00,,,-99.99,wx200d/1.3,2013-10-13 05:16:00,
2013-10-13 01:22:00,48.6,32.0,28.94,WNW,292,0.0,0.0,42,0.00,,,-99.99,wx200d/1.3,2013-10-13 05:22:00,
2013-10-13 01:28:00,48.6,32.0,28.94,WNW,292,0.0,0.0,42,0.00,,,-99.99,wx200d/1.3,2013-10-13 05:28:00,
2013-10-13 01:34:00,48.6,32.0,28.94,WNW,292,0.0,0.0,42,0.00,,,-99.99,wx200d/1.3,2013-10-13 05:34:00,
2013-10-13 01:40:00,48.6,32.0,28.94,WNW,292,0.0,0.0,42,0.00,,,-99.99,wx200d/1.3,2013-10-13 05:40:00,
2013-10-13 01:46:00,48.6,32.0,28.94,WNW,292,0.0,0.0,42,0.00,,,-99.99,wx200d/1.3,2013-10-13 05:46:00,
2013-10-13 01:52:00,48.4,32.0,28.94,WNW,292,0.0,0.0,42,0.00,,,-99.99,wx200d/1.3,2013-10-13 05:52:00,
2013-10-13 01:58:00,48.4,32.0,28.94,NNW,329,0.0,0.0,42,0.00,,,-99.99,wx200d/1.3,2013-10-13 05:58:00,
2013-10-13 02:04:00,48.2,32.0,28.94,WNW,294,0.0,0.0,42,0.00,,,-99.99,wx200d/1.3,2013-10-13 06:04:00,
2013-10-13 02:10:00,48.0,32.0,28.94,West,267,0.0,0.0,42,0.00,,,-99.99,wx200d/1.3,2013-10-13 06:10:00,
2013-10-13 02:16:00,47.8,32.0,28.94,West,267,0.0,0.0,41,0.00,,,-99.99,wx200d/1.3,2013-10-13 06:16:00,
2013-10-13 02:22:00,47.7,32.0,28.94,West,267,0.0,0.0,41,0.00,,,-99.99,wx200d/1.3,2013-10-13 06:22:00,
2013-10-13 02:28:00,47.7,32.0,28.94,West,267,0.0,0.0,41,0.00,,,-99.99,wx200d/1.3,2013-10-13 06:28:00,
2013-10-13 02:34:00,47.5,32.0,28.94,West,267,0.0,0.0,41,0.00,,,-99.99,wx200d/1.3,2013-10-13 06:34:00,
2013-10-13 02:40:00,47.3,32.0,28.94,West,272,0.0,0.0,41,0.00,,,-99.99,wx200d/1.3,2013-10-13 06:40:00,
2013-10-13 02:46:00,47.3,32.0,28.94,West,272,0.0,0.0,41,0.00,,,-99.99,wx200d/1.3,2013-10-13 06:46:00,
2013-10-13 02:52:00,47.1,32.0,28.94,WNW,294,0.0,0.0,41,0.00,,,-99.99,wx200d/1.3,2013-10-13 06:52:00,
2013-10-13 02:58:00,46.9,32.0,28.94,WSW,252,0.0,0.0,41,0.00,,,-99.99,wx200d/1.3,2013-10-13 06:58:00,
2013-10-13 03:04:00,46.9,32.0,28.94,WSW,252,0.0,0.0,41,0.00,,,-99.99,wx200d/1.3,2013-10-13 07:04:00,
2013-10-13 03:10:00,46.8,32.0,28.94,WSW,252,0.0,0.0,41,0.00,,,-99.99,wx200d/1.3,2013-10-13 07:10:00,
2013-10-13 03:16:00,46.8,32.0,28.94,WSW,252,0.0,0.0,41,0.00,,,-99.99,wx200d/1.3,2013-10-13 07:16:00,
2013-10-13 03:22:00,46.8,32.0,28.94,WSW,252,0.0,0.0,41,0.00,,,-99.99,wx200d/1.3,2013-10-13 07:22:00,
2013-10-13 03:28:00,46.6,32.0,28.94,WSW,252,0.0,0.0,41,0.00,,,-99.99,wx200d/1.3,2013-10-13 07:28:00,
2013-10-13 03:34:00,46.6,32.0,28.94,WSW,252,0.0,0.0,41,0.00,,,-99.99,wx200d/1.3,2013-10-13 07:34:00,
2013-10-13 03:40:00,46.4,32.0,28.94,WSW,252,0.0,0.0,40,0.00,,,-99.99,wx200d/1.3,2013-10-13 07:40:00,
2013-10-13 03:46:00,46.2,32.0,28.94,WSW,252,0.0,0.0,41,0.00,,,-99.99,wx200d/1.3,2013-10-13 07:46:00,
2013-10-13 03:52:00,46.0,32.0,28.94,WSW,252,0.0,0.0,41,0.00,,,-99.99,wx200d/1.3,2013-10-13 07:52:00,
2013-10-13 03:58:00,46.0,32.0,28.94,WSW,252,0.0,0.0,41,0.00,,,-99.99,wx200d/1.3,2013-10-13 07:58:00,
2013-10-13 04:04:00,46.0,32.0,28.94,WSW,252,0.0,0.0,41,0.00,,,-99.99,wx200d/1.3,2013-10-13 08:04:00,
2013-10-13 04:10:00,46.0,32.0,28.94,WSW,252,0.0,0.0,41,0.00,,,-99.99,wx200d/1.3,2013-10-13 08:10:00,
2013-10-13 04:16:00,46.0,32.0,28.94,WSW,244,0.0,0.0,41,0.00,,,-99.99,wx200d/1.3,2013-10-13 08:16:00,
2013-10-13 04:22:00,46.0,32.0,28.94,NNW,345,0.0,0.0,41,0.00,,,-99.99,wx200d/1.3,2013-10-13 08:22:00,
2013-10-13 04:28:00,46.2,32.0,28.94,NNW,345,0.0,0.0,41,0.00,,,-99.99,wx200d/1.3,2013-10-13 08:28:00,
2013-10-13 04:34:00,46.0,32.0,28.94,NNW,345,0.0,0.0,41,0.00,,,-99.99,wx200d/1.3,2013-10-13 08:34:00,
2013-10-13 04:40:00,46.0,32.0,28.94,NNW,345,0.0,0.0,41,0.00,,,-99.99,wx200d/1.3,2013-10-13 08:40:00,
2013-10-13 04:46:00,46.0,32.0,28.94,NNW,345,0.0,0.0,41,0.00,,,-99.99,wx200d/1.3,2013-10-13 08:46:00,
2013-10-13 04:52:00,46.0,32.0,28.94,NNW,345,0.0,0.0,41,0.00,,,-99.99,wx200d/1.3,2013-10-13 08:52:00,
2013-10-13 04:58:00,46.0,32.0,28.94,NNW,345,0.0,0.0,41,0.00,,,-99.99,wx200d/1.3,2013-10-13 08:58:00,
2013-10-13 05:04:00,46.0,32.0,28.94,WNW,283,0.0,0.0,41,0.00,,,-99.99,wx200d/1.3,2013-10-13 09:04:00,
2013-10-13 05:10:00,46.0,32.0,28.94,WNW,283,0.0,0.0,41,0.00,,,-99.99,wx200d/1.3,2013-10-13 09:10:00,
2013-10-13 05:16:00,45.9,32.0,28.94,WNW,283,0.0,0.0,41,0.00,,,-99.99,wx200d/1.3,2013-10-13 09:16:00,
2013-10-13 05:22:00,45.9,32.0,28.94,WNW,283,0.0,0.0,41,0.00,,,-99.99,wx200d/1.3,2013-10-13 09:22:00,
2013-10-13 05:28:00,45.9,32.0,28.94,NNW,333,0.0,0.0,41,0.00,,,-99.99,wx200d/1.3,2013-10-13 09:28:00,
2013-10-13 05:34:00,45.7,32.0,28.94,NNW,333,0.0,0.0,41,0.00,,,-99.99,wx200d/1.3,2013-10-13 09:34:00,
2013-10-13 05:40:00,45.5,32.0,28.94,NNW,333,0.0,0.0,41,0.00,,,-99.99,wx200d/1.3,2013-10-13 09:40:00,
2013-10-13 05:46:00,45.3,32.0,28.94,NNW,333,0.0,0.0,41,0.00,,,-99.99,wx200d/1.3,2013-10-13 09:46:00,
2013-10-13 05:52:00,45.1,32.0,28.94,NNW,333,0.0,0.0,41,0.00,,,-99.99,wx200d/1.3,2013-10-13 09:52:00,
2013-10-13 05:58:00,45.1,32.0,28.94,NNW,333,0.0,0.0,41,0.00,,,-99.99,wx200d/1.3,2013-10-13 09:58:00,
2013-10-13 06:04:00,44.8,32.0,28.94,NNW,333,0.0,0.0,41,0.00,,,-99.99,wx200d/1.3,2013-10-13 10:04:00,
2013-10-13 06:10:00,44.6,32.0,28.94,NNW,333,0.0,0.0,40,0.00,,,-99.99,wx200d/1.3,2013-10-13 10:10:00,
2013-10-13 06:16:00,44.4,32.0,28.94,NNW,333,0.0,0.0,41,0.00,,,-99.99,wx200d/1.3,2013-10-13 10:16:00,
2013-10-13 06:22:00,44.2,32.0,28.97,NNW,333,0.0,0.0,41,0.00,,,-99.99,wx200d/1.3,2013-10-13 10:22:00,
2013-10-13 06:28:00,44.1,32.0,28.97,NNW,336,0.0,0.0,41,0.00,,,-99.99,wx200d/1.3,2013-10-13 10:28:00,
2013-10-13 06:34:00,44.1,32.0,28.97,NW,304,0.0,0.0,41,0.00,,,-99.99,wx200d/1.3,2013-10-13 10:34:00,
2013-10-13 06:40:00,43.9,32.0,28.97,NW,304,0.0,0.0,41,0.00,,,-99.99,wx200d/1.3,2013-10-13 10:40:00,
2013-10-13 06:46:00,43.9,32.0,28.97,NW,304,0.0,0.0,41,0.00,,,-99.99,wx200d/1.3,2013-10-13 10:46:00,
2013-10-13 06:52:00,43.7,32.0,28.94,NW,304,0.0,0.0,41,0.00,,,-99.99,wx200d/1.3,2013-10-13 10:52:00,
2013-10-13 06:58:00,43.5,32.0,28.94,NNW,330,0.0,0.0,41,0.00,,,-99.99,wx200d/1.3,2013-10-13 10:58:00,
2013-10-13 07:04:00,43.5,32.0,28.94,NNW,330,0.0,0.0,41,0.00,,,-99.99,wx200d/1.3,2013-10-13 11:04:00,
2013-10-13 07:10:00,43.5,32.0,28.97,NNW,335,0.0,0.0,41,0.00,,,-99.99,wx200d/1.3,2013-10-13 11:10:00,
2013-10-13 07:16:00,43.5,32.0,28.97,NNW,335,0.0,0.0,41,0.00,,,-99.99,wx200d/1.3,2013-10-13 11:16:00,
2013-10-13 07:22:00,43.5,32.0,28.97,NNW,335,0.0,0.0,41,0.00,,,-99.99,wx200d/1.3,2013-10-13 11:22:00,
2013-10-13 07:28:00,43.3,32.0,28.97,NNW,335,0.0,0.0,41,0.00,,,-99.99,wx200d/1.3,2013-10-13 11:28:00,
2013-10-13 07:34:00,43.3,32.0,28.97,NNW,335,0.0,0.0,41,0.00,,,-99.99,wx200d/1.3,2013-10-13 11:34:00,
2013-10-13 07:40:00,43.3,32.0,28.97,WNW,291,0.0,0.0,41,0.00,,,-99.99,wx200d/1.3,2013-10-13 11:40:00,
2013-10-13 07:46:00,43.3,32.0,28.97,WNW,284,0.0,0.0,41,0.00,,,-99.99,wx200d/1.3,2013-10-13 11:46:00,
2013-10-13 07:52:00,43.2,32.0,28.97,North,353,0.0,0.0,41,0.00,,,-99.99,wx200d/1.3,2013-10-13 11:52:00,
2013-10-13 07:58:00,43.3,32.0,28.97,NNW,338,0.0,0.0,41,0.00,,,-99.99,wx200d/1.3,2013-10-13 11:58:00,
2013-10-13 08:04:00,43.3,32.0,28.97,NNW,338,0.0,0.0,41,0.00,,,-99.99,wx200d/1.3,2013-10-13 12:04:00,
2013-10-13 08:10:00,43.5,32.0,28.97,NW,307,0.0,0.0,41,0.00,,,-99.99,wx200d/1.3,2013-10-13 12:10:00,
2013-10-13 08:16:00,43.7,32.0,28.97,NW,325,0.0,0.0,42,0.00,,,-99.99,wx200d/1.3,2013-10-13 12:16:00,
2013-10-13 08:22:00,44.1,32.0,29.00,NW,325,0.0,0.0,42,0.00,,,-99.99,wx200d/1.3,2013-10-13 12:22:00,
2013-10-13 08:28:00,44.1,32.0,29.00,NW,326,0.0,0.0,42,0.00,,,-99.99,wx200d/1.3,2013-10-13 12:28:00,
2013-10-13 08:34:00,44.4,32.0,29.00,NW,326,0.0,0.0,42,0.00,,,-99.99,wx200d/1.3,2013-10-13 12:34:00,
2013-10-13 08:40:00,44.6,32.0,29.00,NW,326,0.0,0.0,42,0.00,,,-99.99,wx200d/1.3,2013-10-13 12:40:00,
2013-10-13 08:46:00,45.1,32.0,29.00,SW,221,0.0,0.0,42,0.00,,,-99.99,wx200d/1.3,2013-10-13 12:46:00,
2013-10-13 08:52:00,45.7,32.0,29.00,NE,37,0.0,0.0,42,0.00,,,-99.99,wx200d/1.3,2013-10-13 12:52:00,
2013-10-13 08:58:00,46.2,32.0,29.00,WSW,245,0.0,0.0,43,0.00,,,-99.99,wx200d/1.3,2013-10-13 12:58:00,
2013-10-13 09:04:00,46.8,32.0,29.00,North,7,0.0,0.0,43,0.00,,,-99.99,wx200d/1.3,2013-10-13 13:04:00,
2013-10-13 09:10:00,47.1,32.0,29.00,West,262,0.0,0.0,43,0.00,,,-99.99,wx200d/1.3,2013-10-13 13:10:00,
2013-10-13 09:16:00,47.3,32.0,29.00,NNE,21,0.0,0.0,43,0.00,,,-99.99,wx200d/1.3,2013-10-13 13:16:00,
2013-10-13 09:22:00,47.7,32.0,29.00,NNW,340,0.0,0.0,43,0.00,,,-99.99,wx200d/1.3,2013-10-13 13:22:00,
2013-10-13 09:28:00,47.8,32.0,29.00,North,353,0.0,0.0,43,0.00,,,-99.99,wx200d/1.3,2013-10-13 13:28:00,
2013-10-13 09:34:00,48.2,32.0,29.00,North,3,0.0,0.0,42,0.00,,,-99.99,wx200d/1.3,2013-10-13 13:34:00,
2013-10-13 09:40:00,48.9,32.0,28.97,NNW,348,0.0,0.0,41,0.00,,,-99.99,wx200d/1.3,2013-10-13 13:40:00,
2013-10-13 09:46:00,49.5,32.0,28.97,West,268,0.0,0.0,41,0.00,,,-99.99,wx200d/1.3,2013-10-13 13:46:00,
2013-10-13 09:52:00,50.0,32.0,29.00,NNE,21,0.0,0.0,39,0.00,,,-99.99,wx200d/1.3,2013-10-13 13:52:00,
2013-10-13 09:58:00,50.5,32.0,29.00,NNE,12,0.0,0.0,38,0.00,,,-99.99,wx200d/1.3,2013-10-13 13:58:00,
2013-10-13 10:04:00,50.9,32.0,29.00,SSW,200,0.0,0.0,38,0.00,,,-99.99,wx200d/1.3,2013-10-13 14:04:00,
2013-10-13 10:10:00,51.1,32.0,29.00,NNW,337,0.0,0.0,37,0.00,,,-99.99,wx200d/1.3,2013-10-13 14:10:00,
2013-10-13 10:16:00,51.3,32.0,29.00,NW,306,0.0,0.0,36,0.00,,,-99.99,wx200d/1.3,2013-10-13 14:16:00,
2013-10-13 10:22:00,51.4,32.0,29.00,South,180,0.0,4.0,31,0.00,,,-99.99,wx200d/1.3,2013-10-13 14:22:00,
2013-10-13 10:28:00,52.0,32.0,29.00,North,357,0.0,0.0,28,0.00,,,-99.99,wx200d/1.3,2013-10-13 14:28:00,
2013-10-13 10:34:00,52.2,32.0,29.00,SW,227,0.0,3.6,27,0.00,,,-99.99,wx200d/1.3,2013-10-13 14:34:00,
2013-10-13 10:40:00,52.5,32.0,29.00,SSW,205,0.0,0.0,26,0.00,,,-99.99,wx200d/1.3,2013-10-13 14:40:00,
2013-10-13 10:46:00,52.7,32.0,29.00,SSE,164,0.0,0.0,26,0.00,,,-99.99,wx200d/1.3,2013-10-13 14:46:00,
2013-10-13 10:52:00,52.7,32.0,29.00,SE,140,0.0,3.1,23,0.00,,,-99.99,wx200d/1.3,2013-10-13 14:52:00,
2013-10-13 10:58:00,52.9,32.0,29.00,South,179,0.0,0.0,23,0.00,,,-99.99,wx200d/1.3,2013-10-13 14:58:00,
2013-10-13 11:04:00,53.1,32.0,29.00,West,271,0.0,0.0,23,0.00,,,-99.99,wx200d/1.3,2013-10-13 15:04:00,
2013-10-13 11:10:00,54.1,32.0,29.00,South,173,2.2,0.0,20,0.00,,,-99.99,wx200d/1.3,2013-10-13 15:10:00,
2013-10-13 11:16:00,54.3,32.0,29.00,South,181,0.0,2.2,20,0.00,,,-99.99,wx200d/1.3,2013-10-13 15:16:00,
2013-10-13 11:22:00,54.9,32.0,29.00,South,188,0.0,0.0,20,0.00,,,-99.99,wx200d/1.3,2013-10-13 15:22:00,
2013-10-13 11:28:00,55.9,32.0,29.00,SW,214,0.0,0.0,20,0.00,,,-99.99,wx200d/1.3,2013-10-13 15:28:00,
2013-10-13 11:34:00,55.9,32.0,29.00,SSW,193,0.0,0.0,17,0.00,,,-99.99,wx200d/1.3,2013-10-13 15:34:00,
2013-10-13 11:40:00,55.8,32.0,29.00,SSW,208,2.2,0.0,17,0.00,,,-99.99,wx200d/1.3,2013-10-13 15:40:00,
2013-10-13 11:46:00,55.6,32.0,29.00,SSW,200,0.0,5.8,17,0.00,,,-99.99,wx200d/1.3,2013-10-13 15:46:00,
2013-10-13 11:52:00,55.4,32.0,29.00,WNW,287,0.0,0.0,17,0.00,,,-99.99,wx200d/1.3,2013-10-13 15:52:00,
2013-10-13 11:58:00,55.0,32.0,29.00,West,278,0.0,0.0,18,0.00,,,-99.99,wx200d/1.3,2013-10-13 15:58:00,
2013-10-13 12:04:00,54.5,32.0,29.00,South,178,0.0,0.0,18,0.00,,,-99.99,wx200d/1.3,2013-10-13 16:04:00,
2013-10-13 12:10:00,54.3,32.0,29.00,WSW,247,0.0,0.0,20,0.00,,,-99.99,wx200d/1.3,2013-10-13 16:10:00,
2013-10-13 12:16:00,54.1,32.0,29.00,NNE,14,0.0,0.0,20,0.00,,,-99.99,wx200d/1.3,2013-10-13 16:16:00,
2013-10-13 12:22:00,54.1,32.0,29.00,SSW,194,0.0,2.7,20,0.00,,,-99.99,wx200d/1.3,2013-10-13 16:22:00,
2013-10-13 12:28:00,54.1,32.0,29.00,NNE,28,0.0,2.7,20,0.00,,,-99.99,wx200d/1.3,2013-10-13 16:28:00,
2013-10-13 12:34:00,54.1,32.0,29.00,South,189,0.0,0.0,20,0.00,,,-99.99,wx200d/1.3,2013-10-13 16:34:00,
2013-10-13 12:40:00,54.1,32.0,29.00,SE,130,0.0,0.0,20,0.00,,,-99.99,wx200d/1.3,2013-10-13 16:40:00,
2013-10-13 12:46:00,54.0,32.0,29.00,WSW,239,0.0,0.0,20,0.00,,,-99.99,wx200d/1.3,2013-10-13 16:46:00,
2013-10-13 12:52:00,54.0,32.0,29.00,South,173,0.0,2.2,20,0.00,,,-99.99,wx200d/1.3,2013-10-13 16:52:00,
2013-10-13 12:58:00,53.8,32.0,29.00,West,270,0.0,0.0,20,0.00,,,-99.99,wx200d/1.3,2013-10-13 16:58:00,
2013-10-13 13:04:00,53.6,32.0,29.00,West,265,0.0,0.0,20,0.00,,,-99.99,wx200d/1.3,2013-10-13 17:04:00,
2013-10-13 13:10:00,53.4,32.0,29.00,West,265,0.0,0.0,21,0.00,,,-99.99,wx200d/1.3,2013-10-13 17:10:00,
2013-10-13 13:16:00,53.4,32.0,29.00,South,188,0.0,0.0,21,0.00,,,-99.99,wx200d/1.3,2013-10-13 17:16:00,
2013-10-13 13:22:00,53.4,32.0,29.00,West,268,0.0,0.0,21,0.00,,,-99.99,wx200d/1.3,2013-10-13 17:22:00,
2013-10-13 13:28:00,53.4,32.0,29.00,West,271,0.0,0.0,21,0.00,,,-99.99,wx200d/1.3,2013-10-13 17:28:00,
2013-10-13 13:34:00,53.4,32.0,29.00,WNW,301,0.0,0.0,21,0.00,,,-99.99,wx200d/1.3,2013-10-13 17:34:00,
2013-10-13 13:40:00,53.4,32.0,28.97,NW,315,0.0,0.0,21,0.00,,,-99.99,wx200d/1.3,2013-10-13 17:40:00,
2013-10-13 13:46:00,53.2,32.0,28.97,West,280,0.0,0.0,21,0.00,,,-99.99,wx200d/1.3,2013-10-13 17:46:00,
2013-10-13 13:52:00,53.2,32.0,28.97,WNW,299,0.0,0.0,23,0.00,,,-99.99,wx200d/1.3,2013-10-13 17:52:00,
2013-10-13 13:58:00,53.2,32.0,28.97,West,272,0.0,0.0,23,0.00,,,-99.99,wx200d/1.3,2013-10-13 17:58:00,
2013-10-13 14:04:00,53.2,32.0,28.97,WSW,255,0.0,0.0,23,0.00,,,-99.99,wx200d/1.3,2013-10-13 18:04:00,
2013-10-13 14:10:00,53.2,32.0,28.97,NNW,342,0.0,0.0,21,0.00,,,-99.99,wx200d/1.3,2013-10-13 18:10:00,
2013-10-13 14:16:00,53.2,32.0,28.97,North,353,0.0,0.0,23,0.00,,,-99.99,wx200d/1.3,2013-10-13 18:16:00,
2013-10-13 14:22:00,53.2,32.0,28.97,East,81,0.0,0.0,23,0.00,,,-99.99,wx200d/1.3,2013-10-13 18:22:00,
2013-10-13 14:28:00,53.2,32.0,28.97,SSW,207,0.0,0.0,23,0.00,,,-99.99,wx200d/1.3,2013-10-13 18:28:00,
2013-10-13 14:34:00,53.2,32.0,28.97,SW,222,0.0,0.0,23,0.00,,,-99.99,wx200d/1.3,2013-10-13 18:34:00,
2013-10-13 14:40:00,53.2,32.0,28.97,NE,37,0.0,0.0,23,0.00,,,-99.99,wx200d/1.3,2013-10-13 18:40:00,
2013-10-13 14:46:00,53.1,32.0,28.97,West,280,0.0,0.0,23,0.00,,,-99.99,wx200d/1.3,2013-10-13 18:46:00,
2013-10-13 14:52:00,53.1,32.0,28.97,North,350,0.0,0.0,23,0.00,,,-99.99,wx200d/1.3,2013-10-13 18:52:00,
2013-10-13 14:58:00,53.1,32.0,28.97,West,274,0.0,0.0,23,0.00,,,-99.99,wx200d/1.3,2013-10-13 18:58:00,
2013-10-13 15:04:00,53.1,32.0,28.97,NW,320,0.0,0.0,23,0.00,,,-99.99,wx200d/1.3,2013-10-13 19:04:00,
2013-10-13 15:10:00,53.1,32.0,28.97,NW,320,0.0,0.0,23,0.00,,,-99.99,wx200d/1.3,2013-10-13 19:10:00,
2013-10-13 15:16:00,53.1,32.0,28.97,NW,320,0.0,0.0,23,0.00,,,-99.99,wx200d/1.3,2013-10-13 19:16:00,
2013-10-13 15:22:00,53.1,32.0,28.97,NW,320,0.0,0.0,23,0.00,,,-99.99,wx200d/1.3,2013-10-13 19:22:00,
2013-10-13 15:28:00,53.1,32.0,28.97,WSW,254,0.0,0.0,23,0.00,,,-99.99,wx200d/1.3,2013-10-13 19:28:00,
2013-10-13 15:34:00,53.1,32.0,28.97,WSW,254,0.0,0.0,26,0.00,,,-99.99,wx200d/1.3,2013-10-13 19:34:00,
2013-10-13 15:40:00,53.1,32.0,28.97,NW,322,0.0,0.0,23,0.00,,,-99.99,wx200d/1.3,2013-10-13 19:40:00,
2013-10-13 15:46:00,53.1,32.0,28.97,West,278,0.0,0.0,26,0.00,,,-99.99,wx200d/1.3,2013-10-13 19:46:00,
2013-10-13 15:52:00,53.1,32.0,28.97,SSW,194,0.0,0.0,23,0.00,,,-99.99,wx200d/1.3,2013-10-13 19:52:00,
2013-10-13 15:58:00,53.1,32.0,28.97,West,269,0.0,0.0,23,0.00,,,-99.99,wx200d/1.3,2013-10-13 19:58:00,
2013-10-13 16:04:00,53.1,32.0,28.97,WNW,297,0.0,0.0,26,0.00,,,-99.99,wx200d/1.3,2013-10-13 20:04:00,
2013-10-13 16:10:00,52.9,32.0,28.97,WNW,297,0.0,0.0,26,0.00,,,-99.99,wx200d/1.3,2013-10-13 20:10:00,
2013-10-13 16:16:00,52.9,32.0,28.97,WNW,297,0.0,0.0,26,0.00,,,-99.99,wx200d/1.3,2013-10-13 20:16:00,
2013-10-13 16:22:00,52.9,32.0,28.97,NNW,344,0.0,0.0,26,0.00,,,-99.99,wx200d/1.3,2013-10-13 20:22:00,
2013-10-13 16:28:00,52.9,32.0,28.97,NW,307,0.0,0.0,26,0.00,,,-99.99,wx200d/1.3,2013-10-13 20:28:00,
2013-10-13 16:34:00,52.7,32.0,28.97,WNW,284,0.0,0.0,26,0.00,,,-99.99,wx200d/1.3,2013-10-13 20:34:00,
2013-10-13 16:40:00,52.7,32.0,28.97,WNW,284,0.0,0.0,26,0.00,,,-99.99,wx200d/1.3,2013-10-13 20:40:00,
2013-10-13 16:46:00,52.5,32.0,28.97,WNW,284,0.0,0.0,26,0.00,,,-99.99,wx200d/1.3,2013-10-13 20:46:00,
2013-10-13 16:52:00,52.5,32.0,28.97,West,281,0.0,0.0,26,0.00,,,-99.99,wx200d/1.3,2013-10-13 20:52:00,
2013-10-13 16:58:00,52.3,32.0,28.97,SSW,209,0.0,0.0,26,0.00,,,-99.99,wx200d/1.3,2013-10-13 20:58:00,
2013-10-13 17:04:00,52.3,32.0,28.97,SW,225,0.0,0.0,26,0.00,,,-99.99,wx200d/1.3,2013-10-13 21:04:00,
2013-10-13 17:10:00,52.2,32.0,28.97,West,260,0.0,0.0,26,0.00,,,-99.99,wx200d/1.3,2013-10-13 21:10:00,
2013-10-13 17:16:00,52.0,32.0,28.97,SSE,168,0.0,0.0,26,0.00,,,-99.99,wx200d/1.3,2013-10-13 21:16:00,
2013-10-13 17:22:00,51.8,32.0,28.94,SSE,155,0.0,0.0,26,0.00,,,-99.99,wx200d/1.3,2013-10-13 21:22:00,
2013-10-13 17:28:00,51.8,32.0,28.94,WSW,241,0.0,0.0,26,0.00,,,-99.99,wx200d/1.3,2013-10-13 21:28:00,
2013-10-13 17:34:00,51.6,32.0,28.94,SW,231,0.0,0.0,27,0.00,,,-99.99,wx200d/1.3,2013-10-13 21:34:00,
2013-10-13 17:40:00,51.6,32.0,28.94,NE,52,0.0,0.0,27,0.00,,,-99.99,wx200d/1.3,2013-10-13 21:40:00,
2013-10-13 17:46:00,51.4,32.0,28.94,ENE,65,0.0,0.0,27,0.00,,,-99.99,wx200d/1.3,2013-10-13 21:46:00,
2013-10-13 17:52:00,51.3,32.0,28.94,West,271,0.0,0.0,27,0.00,,,-99.99,wx200d/1.3,2013-10-13 21:52:00,
2013-10-13 17:58:00,51.3,32.0,28.94,NNW,348,0.0,0.0,27,0.00,,,-99.99,wx200d/1.3,2013-10-13 21:58:00,
2013-10-13 18:04:00,51.1,32.0,28.94,NNW,348,0.0,0.0,27,0.00,,,-99.99,wx200d/1.3,2013-10-13 22:04:00,
2013-10-13 18:10:00,50.9,32.0,28.94,WSW,239,0.0,0.0,27,0.00,,,-99.99,wx200d/1.3,2013-10-13 22:10:00,
2013-10-13 18:16:00,50.5,32.0,28.94,WNW,282,0.0,0.0,27,0.00,,,-99.99,wx200d/1.3,2013-10-13 22:16:00,
2013-10-13 18:22:00,50.2,32.0,28.97,WNW,282,0.0,0.0,27,0.00,,,-99.99,wx200d/1.3,2013-10-13 22:22:00,
2013-10-13 18:28:00,49.5,32.0,28.97,WNW,282,0.0,0.0,27,0.00,,,-99.99,wx200d/1.3,2013-10-13 22:28:00,
2013-10-13 18:34:00,48.9,32.0,28.97,WNW,282,0.0,0.0,28,0.00,,,-99.99,wx200d/1.3,2013-10-13 22:34:00,
2013-10-13 18:40:00,48.6,32.0,28.97,WNW,282,0.0,0.0,28,0.00,,,-99.99,wx200d/1.3,2013-10-13 22:40:00,
2013-10-13 18:46:00,48.2,32.0,28.97,WNW,282,0.0,0.0,29,0.00,,,-99.99,wx200d/1.3,2013-10-13 22:46:00,
2013-10-13 18:52:00,47.8,32.0,28.97,WNW,282,0.0,0.0,30,0.00,,,-99.99,wx200d/1.3,2013-10-13 22:52:00,
2013-10-13 18:58:00,47.5,32.0,28.97,WNW,282,0.0,0.0,31,0.00,,,-99.99,wx200d/1.3,2013-10-13 22:58:00,
2013-10-13 19:04:00,47.3,32.0,28.97,WNW,282,0.0,0.0,32,0.00,,,-99.99,wx200d/1.3,2013-10-13 23:04:00,
2013-10-13 19:10:00,47.1,32.0,28.97,WNW,282,0.0,0.0,34,0.00,,,-99.99,wx200d/1.3,2013-10-13 23:10:00,
2013-10-13 19:16:00,46.9,32.0,28.97,WNW,282,0.0,0.0,36,0.00,,,-99.99,wx200d/1.3,2013-10-13 23:16:00,
2013-10-13 19:22:00,46.8,32.0,28.97,WNW,282,0.0,0.0,37,0.00,,,-99.99,wx200d/1.3,2013-10-13 23:22:00,
2013-10-13 19:28:00,46.8,32.0,28.97,WNW,282,0.0,0.0,37,0.00,,,-99.99,wx200d/1.3,2013-10-13 23:28:00,
2013-10-13 19:34:00,46.6,32.0,28.97,WNW,282,0.0,0.0,37,0.00,,,-99.99,wx200d/1.3,2013-10-13 23:34:00,
2013-10-13 19:40:00,46.6,32.0,28.97,WNW,282,0.0,0.0,37,0.00,,,-99.99,wx200d/1.3,2013-10-13 23:40:00,
2013-10-13 19:46:00,46.4,32.0,28.97,WNW,282,0.0,0.0,37,0.00,,,-99.99,wx200d/1.3,2013-10-13 23:46:00,
2013-10-13 19:52:00,46.2,32.0,28.94,WNW,282,0.0,0.0,38,0.00,,,-99.99,wx200d/1.3,2013-10-13 23:52:00,
2013-10-13 19:58:00,46.2,32.0,28.94,WNW,282,0.0,0.0,38,0.00,,,-99.99,wx200d/1.3,2013-10-13 23:58:00,
2013-10-13 20:04:00,46.0,32.0,28.94,WNW,282,0.0,0.0,38,0.00,,,-99.99,wx200d/1.3,2013-10-14 00:04:00,
2013-10-13 20:10:00,46.0,32.0,28.97,WNW,282,0.0,0.0,38,0.00,,,-99.99,wx200d/1.3,2013-10-14 00:10:00,
2013-10-13 20:16:00,45.9,32.0,28.97,WNW,282,0.0,0.0,38,0.00,,,-99.99,wx200d/1.3,2013-10-14 00:16:00,
2013-10-13 20:22:00,45.9,32.0,28.97,WNW,282,0.0,0.0,38,0.00,,,-99.99,wx200d/1.3,2013-10-14 00:22:00,
2013-10-13 20:28:00,45.7,32.0,28.97,WNW,282,0.0,0.0,38,0.00,,,-99.99,wx200d/1.3,2013-10-14 00:28:00,
2013-10-13 20:34:00,45.7,32.0,28.97,WNW,282,0.0,0.0,39,0.00,,,-99.99,wx200d/1.3,2013-10-14 00:34:00,
2013-10-13 20:40:00,45.7,32.0,28.97,WNW,282,0.0,0.0,39,0.00,,,-99.99,wx200d/1.3,2013-10-14 00:40:00,
2013-10-13 20:46:00,45.7,32.0,28.97,WNW,282,0.0,0.0,39,0.00,,,-99.99,wx200d/1.3,2013-10-14 00:46:00,
2013-10-13 20:52:00,45.5,32.0,28.97,WNW,282,0.0,0.0,39,0.00,,,-99.99,wx200d/1.3,2013-10-14 00:52:00,
2013-10-13 20:58:00,45.3,32.0,28.97,WNW,282,0.0,0.0,39,0.00,,,-99.99,wx200d/1.3,2013-10-14 00:58:00,
2013-10-13 21:04:00,45.3,32.0,28.97,WNW,282,0.0,0.0,39,0.00,,,-99.99,wx200d/1.3,2013-10-14 01:04:00,
2013-10-13 21:10:00,45.3,32.0,28.97,WNW,282,0.0,0.0,39,0.00,,,-99.99,wx200d/1.3,2013-10-14 01:10:00,
2013-10-13 21:16:00,45.1,32.0,28.97,WNW,282,0.0,0.0,39,0.00,,,-99.99,wx200d/1.3,2013-10-14 01:16:00,
2013-10-13 21:22:00,45.1,32.0,28.97,WNW,282,0.0,0.0,39,0.00,,,-99.99,wx200d/1.3,2013-10-14 01:22:00,
2013-10-13 21:28:00,45.1,32.0,28.97,WNW,282,0.0,0.0,39,0.00,,,-99.99,wx200d/1.3,2013-10-14 01:28:00,
2013-10-13 21:34:00,45.0,32.0,28.97,WNW,282,0.0,0.0,39,0.00,,,-99.99,wx200d/1.3,2013-10-14 01:34:00,
2013-10-13 21:40:00,44.8,32.0,28.97,WNW,282,0.0,0.0,39,0.00,,,-99.99,wx200d/1.3,2013-10-14 01:40:00,
2013-10-13 21:46:00,44.8,32.0,28.97,WNW,282,0.0,0.0,39,0.00,,,-99.99,wx200d/1.3,2013-10-14 01:46:00,
2013-10-13 21:52:00,44.6,32.0,28.97,WNW,282,0.0,0.0,39,0.00,,,-99.99,wx200d/1.3,2013-10-14 01:52:00,
2013-10-13 21:58:00,44.6,32.0,28.97,WNW,282,0.0,0.0,39,0.00,,,-99.99,wx200d/1.3,2013-10-14 01:58:00,
2013-10-13 22:04:00,44.4,32.0,28.97,WNW,282,0.0,0.0,39,0.00,,,-99.99,wx200d/1.3,2013-10-14 02:04:00,
2013-10-13 22:10:00,44.2,32.0,28.97,WNW,282,0.0,0.0,39,0.00,,,-99.99,wx200d/1.3,2013-10-14 02:10:00,
2013-10-13 22:16:00,44.1,32.0,28.97,WNW,282,0.0,0.0,39,0.00,,,-99.99,wx200d/1.3,2013-10-14 02:16:00,
2013-10-13 22:22:00,44.1,32.0,28.97,WNW,282,0.0,0.0,39,0.00,,,-99.99,wx200d/1.3,2013-10-14 02:22:00,
2013-10-13 22:28:00,43.9,32.0,28.97,WNW,282,0.0,0.0,39,0.00,,,-99.99,wx200d/1.3,2013-10-14 02:28:00,
2013-10-13 22:34:00,43.9,32.0,28.97,WNW,282,0.0,0.0,39,0.00,,,-99.99,wx200d/1.3,2013-10-14 02:34:00,
2013-10-13 22:40:00,43.7,32.0,28.97,WNW,282,0.0,0.0,39,0.00,,,-99.99,wx200d/1.3,2013-10-14 02:40:00,
2013-10-13 22:46:00,43.7,32.0,28.97,WNW,282,0.0,0.0,39,0.00,,,-99.99,wx200d/1.3,2013-10-14 02:46:00,
2013-10-13 22:52:00,43.7,32.0,28.97,WNW,282,0.0,0.0,39,0.00,,,-99.99,wx200d/1.3,2013-10-14 02:52:00,
2013-10-13 22:58:00,43.7,32.0,28.97,WNW,282,0.0,0.0,39,0.00,,,-99.99,wx200d/1.3,2013-10-14 02:58:00,
2013-10-13 23:04:00,43.5,32.0,28.97,WNW,282,0.0,0.0,39,0.00,,,-99.99,wx200d/1.3,2013-10-14 03:04:00,
2013-10-13 23:10:00,43.5,32.0,28.97,WNW,282,0.0,0.0,39,0.00,,,-99.99,wx200d/1.3,2013-10-14 03:10:00,
2013-10-13 23:16:00,43.5,32.0,28.97,WNW,282,0.0,0.0,39,0.00,,,-99.99,wx200d/1.3,2013-10-14 03:16:00,
2013-10-13 23:22:00,43.3,32.0,28.97,WNW,282,0.0,0.0,39,0.00,,,-99.99,wx200d/1.3,2013-10-14 03:22:00,
2013-10-13 23:28:00,43.3,32.0,28.97,WNW,282,0.0,0.0,39,0.00,,,-99.99,wx200d/1.3,2013-10-14 03:28:00,
2013-10-13 23:34:00,43.3,32.0,28.97,WNW,282,0.0,0.0,39,0.00,,,-99.99,wx200d/1.3,2013-10-14 03:34:00,
2013-10-13 23:40:00,43.2,32.0,28.97,WNW,282,0.0,0.0,40,0.00,,,-99.99,wx200d/1.3,2013-10-14 03:40:00,
2013-10-13 23:46:00,43.2,32.0,28.97,WNW,282,0.0,0.0,40,0.00,,,-99.99,wx200d/1.3,2013-10-14 03:46:00,
2013-10-13 23:52:00,43.0,32.0,28.94,WNW,282,0.0,0.0,40,0.00,,,-99.99,wx200d/1.3,2013-10-14 03:52:00,
2013-10-13 23:58:00,43.0,32.0,28.94,WNW,282,0.0,0.0,40,0.00,,,-99.99,wx200d/1.3,2013-10-14 03:58:00,